Regional Weather Roundup
Issued by NWS Albany, NY

Home | Current Version | Previous Version | Text Only | Print | Product List | Glossary On
Versions: 1 2 3 4 5 6 7 8 9 10 11 12 13 14 15 16 17 18 19 20 21 22 23 24 25 26 27 28 29 30 31 32 33 34 35 36 37 38 39 40 41 42 43 44 45 46 47 48 49 50
222
ASUS41 KALY 181110
RWRALY

NEW YORK STATE HOURLY WEATHER ROUNDUP
NATIONAL WEATHER SERVICE ALBANY NY
600 AM EST WED JAN 18 2017

NOTE: "FAIR" INDICATES FEW OR NO CLOUDS BELOW 12,000 FEET WITH NO
SIGNIFICANT WEATHER AND/OR NO OBSTRUCTIONS TO VISIBILITY.

NYZ032-033-038>043-046>054-057>066-NYZ062>081-082-084-181200-
EAST


CITY           SKY/WX    TMP DP  RH WIND       PRES   REMARKS
ALBANY         LGT SNOW  33  31  92 E3        29.93F FOG
GLENS FALLS    LGT RAIN  34  31  88 CALM      29.94S FOG
POUGHKEEPSIE   CLOUDY    33  33 100 CALM      29.92S FOG
NEWBURGH       CLOUDY    34  34 100 CALM      29.93R FOG
MONTGOMERY     CLOUDY    35  33  92 NE3       29.90R FOG
WHITE PLAINS   CLOUDY    39  37  92 E9        29.88R WCI  33
ISLIP          CLOUDY    41  41 100 NE13      29.85F
NEW YORK CITY  CLOUDY    41  39  93 N14       29.90R
CENTRAL PARK   CLOUDY    40  39  97 NE8       29.93R WCI  34
$$

NYZ005>009-017-018-044>046-055-056-181200-
CENTRAL


CITY           SKY/WX    TMP DP  RH WIND       PRES   REMARKS
FULTON         CLOUDY    38  37  97 W6        29.86R FOG     WCI  33
SYRACUSE       LGT RAIN  36  36 100 CALM      29.86R FOG
ROME           LGT RAIN  34  34 100 SE8       29.89R FOG     WCI  27
ELMIRA         FOG       37  34  89 CALM      29.86R VSB 1
BINGHAMTON     FOG       33  33 100 S5        29.84R VSB 1/4 WCI  29
MONTICELLO     CLOUDY    32  32 100 CALM      29.88S VSB 1/2
$$

NYZ026>034-041>043-087-181200-
NORTH


CITY           SKY/WX    TMP DP  RH WIND       PRES   REMARKS
WATERTOWN      LGT RAIN  38  38 100 S12       29.83R FOG     WCI  30
FORT DRUM      NOT AVBL
OGDENSBURG     DRIZZLE   32  32  99 NE3       29.85R
MASSENA        FRZ RAIN  28  27  96 NE9       29.89S FOG     WCI  19
SARANAC LAKE   LGT SNOW  32  30  92 MISG      29.81R FOG
PLATTSBURGH    LGT RAIN  34  32  92 S9        29.92R WCI  27
$$

NYZ001>004-010>016-019>021-085-181200-
WEST


CITY           SKY/WX    TMP DP  RH WIND       PRES   REMARKS
NIAGARA FALLS  CLOUDY    37  34  89 SW13      29.89R FOG     WCI  29
BUFFALO        LGT RAIN  36  34  92 W16G23    29.90R FOG     WCI  26
DUNKIRK        MIX PCPN  37  36  96 W10G21    29.94R FOG     WCI  30
JAMESTOWN      CLOUDY    36  32  87 W8G17     29.90R WCI  29
WELLSVILLE     CLOUDY    39  36  89 W9        29.86R WCI  33
ROCHESTER      CLOUDY    39  37  92 W13       29.87R WCI  31
PENN YAN       CLOUDY    43  35  73 W12G21    29.85R
$$

             KEY
       WCI = WIND CHILL INDEX
       VSB = VISIBILITY
       HX  = HEAT INDEX
$$




USA.gov is the U.S. government's official web portal to all federal, state and local government web resources and services.